NEXTSAT-2

导读

NEXTSAT-2是韩国中小企业NextSpace研发的10公斤级微型立方星,于2023年5月25日发射升空,目前仍在轨运行。卫星主要任务是验证自主轨道控制、卫星通信、导航及地球观测技术,测试数据中继与图像采集能力。项目展示了韩国商业小型卫星领域的技术进步,推动本土商业航天发展,为后续复杂任务奠定技术基础。

Basic Information
目录编号:
56743
目录名称:
NEXTSAT-2
国际标识:
2023-072A
轨道中心:
EARTH
卫星名称:
NEXTSAT-2
卫星全名:
--
卫星状态:
在轨 (已飞行1117 天)
发射日期:
2023-05-25 UTC
国别 :
韩国 (KR)
星等 :
--
Orbit Information
数据来源 国际轨道数据 AOE轨道数据
星历时间 2026-06-15T05:03:06+0800
5小时前
查看轨道信息
2026-06-13T15:00:00+0800
1天前
查看轨道信息
半长轴 6860.593km 6860.652km
偏心率 0.0006452 0.0006102
轨道倾角 97.524° 97.523°
近地点辐角 40.706° 44.935°
升交点赤经 2.844° 1.242°
平近点角 319.466° 240.693°
近地点 478.029km 478.328km
远地点 486.883km 486.702km
周期 94.255分钟 94.256分钟
每日圈数 15.277782 15.277586
Detailed Information
使用方式:
暂无
2D Orbit Map
3D Orbit Map
Orbit Altitude Analysis Chart
Orbit Inclination Analysis Chart
Orbit Comprehensive Analysis Chart
View Comprehensive Chart